Weather History for KDBQ - March, 2014

Change the Weather History Date:

Friday, March 7, 2014

  Actual Average Record
Temperature  
Mean Temperature 27 °F 31 °F  
Max Temperature 40 °F 40 °F 77 °F (2000)
Min Temperature 14 °F 23 °F -4 °F (1899)
Degree Days  
Heating Degree Days 38 34  
Month to date heating degree days 374 244  
Since 1 July heating degree days 6750 5637  
Cooling Degree Days 0 0  
Month to date cooling degree days 0 0  
Year to date cooling degree days 0 0  
Moisture  
Dew Point 27 °F    
Average Humidity 83    
Maximum Humidity 96    
Minimum Humidity 70    
Precipitation  
Precipitation 0.02 in 0.07 in 0.72 in (2009)
Month to date precipitation 0.54 0.47  
Year to date precipitation 3.02 3.08  
Snow  
Snow 0.00 in 0.20 in - ()
Month to date snowfall 8.2 1.7  
Since 1 July snowfall 59.9 35.3  
Snow Depth 8.00 in    
Sea Level Pressure  
Sea Level Pressure 29.94 in    
Wind  
Wind Speed 12 mph (West)    
Max Wind Speed 20 mph    
Max Gust Speed 22 mph    
Visibility 4 miles    
Events      
T = Trace of Precipitation, MM = Missing Value Source: NWS Daily Summary

Daily Weather History Graph

Daily Weather History Graph

Search for Another Location

Airport or City:

Trip Planner

Search our weather history database for the weather conditions in past years. The results will help you decide how hot, cold, wet, or windy it might be!

Date:

Astronomy

Mar. 07, 2014 Rise Set
Actual Time 6:28 AM CST 5:59 PM CST
Civil Twilight 6:00 AM CST 6:28 PM CST
Nautical Twilight 5:27 AM CST 7:00 PM CST
Astronomical Twilight 4:55 AM CST 7:33 PM CST
Moon 10:14 AM CST (3/7) 12:12 AM CST (3/7)
Length of Visible Light 12h 27m
Length of Day
11h 31m
Waxing Crescent, 42% of the Moon is Illuminated
Mar 7
Waxing Crescent
Mar 8
First Quarter
Mar 16
Full
Mar 23
Last Quarter
Mar 30
New

Hourly Weather History & Observations

Time (CST) Temp. Windchill Dew Point Humidity Pressure Visibility Wind Dir Wind Speed Gust Speed Precip Events Conditions
12:53 AM 15.1 °F 3.3 °F 12.0 °F 88% 30.03 in 6.0 mi SSW 9.2 mph - N/A   Clear
1:53 AM 16.0 °F 4.4 °F 12.9 °F 88% 30.01 in 5.0 mi SSW 9.2 mph - N/A   Clear
2:53 AM 18.0 °F 3.6 °F 15.1 °F 88% 29.98 in 5.0 mi South 15.0 mph - N/A   Clear
3:53 AM 19.0 °F 4.5 °F 16.0 °F 88% 29.95 in 5.0 mi South 16.1 mph - N/A   Clear
4:53 AM 19.0 °F 4.5 °F 16.0 °F 88% 29.94 in 5.0 mi South 16.1 mph - N/A   Clear
5:53 AM 21.0 °F 7.1 °F 18.0 °F 88% 29.94 in 5.0 mi SSW 16.1 mph - N/A   Clear
6:53 AM 21.9 °F 9.2 °F 18.0 °F 85% 29.93 in 4.0 mi SSW 13.8 mph - N/A   Clear
7:53 AM 24.1 °F 12.5 °F 19.9 °F 84% 29.92 in 4.0 mi South 12.7 mph - N/A   Clear
8:53 AM 26.1 °F 15.0 °F 21.0 °F 81% 29.92 in 5.0 mi South 12.7 mph - N/A   Haze
9:53 AM 30.9 °F 19.8 °F 24.1 °F 76% 29.90 in 5.0 mi South 16.1 mph - N/A   Haze
10:53 AM 36.0 °F 28.5 °F 26.1 °F 67% 29.90 in 6.0 mi SW 10.4 mph - N/A   Haze
11:53 AM 37.9 °F 30.0 °F 28.9 °F 70% 29.89 in 6.0 mi SW 12.7 mph - N/A   Haze
12:53 PM 37.9 °F 30.9 °F 30.0 °F 73% 29.88 in 5.0 mi SW 10.4 mph - N/A   Haze
1:00 PM 37.9 °F 30.9 °F 30.0 °F 73% 29.84 in 5.0 mi SW 10.4 mph - N/A   Haze
1:53 PM 37.9 °F 30.9 °F 30.9 °F 76% 29.88 in 5.0 mi WSW 10.4 mph - N/A   Haze
2:53 PM 39.0 °F 31.8 °F 32.0 °F 76% 29.89 in 5.0 mi West 11.5 mph - N/A   Haze
3:53 PM 37.0 °F 29.8 °F 32.0 °F 82% 29.90 in 3.0 mi West 10.4 mph - N/A   Haze
4:53 PM 36.0 °F 28.0 °F 32.0 °F 86% 29.93 in 3.0 mi WNW 11.5 mph - N/A   Overcast
5:34 PM 35.1 °F 29.3 °F 32.0 °F 89% 29.89 in 3.0 mi WNW 6.9 mph - N/A   Overcast
5:43 PM 35.1 °F 28.6 °F 32.0 °F 89% 29.90 in 3.0 mi WNW 8.1 mph - N/A   Overcast
5:53 PM 35.1 °F 28.6 °F 32.0 °F 89% 29.94 in 2.5 mi NW 8.1 mph - 0.00 in   Overcast
6:07 PM 35.1 °F 28.6 °F 32.0 °F 89% 29.91 in 3.0 mi WNW 8.1 mph - 0.01 in   Overcast
6:25 PM 35.1 °F 27.9 °F 32.0 °F 89% 29.90 in 3.0 mi North 9.2 mph - 0.02 in   Overcast
6:53 PM 35.1 °F 27.4 °F 32.0 °F 89% 29.96 in 3.0 mi North 10.4 mph - 0.02 in   Overcast
7:18 PM 34.0 °F 27.2 °F 32.0 °F 92% 29.94 in 3.0 mi NNW 8.1 mph - N/A   Overcast
7:39 PM 34.0 °F 28.0 °F 32.0 °F 92% 29.95 in 3.0 mi NNW 6.9 mph - N/A   Overcast
7:53 PM 34.0 °F 26.6 °F 32.0 °F 92% 29.99 in 3.0 mi NNW 9.2 mph - N/A   Overcast
8:40 PM 34.0 °F 28.8 °F 32.0 °F 92% 29.97 in 3.0 mi NW 5.8 mph - N/A   Overcast
8:53 PM 34.0 °F 28.0 °F 32.0 °F 92% 30.01 in 3.0 mi NW 6.9 mph - N/A   Overcast
9:53 PM 34.0 °F 26.6 °F 30.9 °F 89% 30.02 in 3.0 mi NNW 9.2 mph - N/A   Overcast
10:53 PM 34.0 °F 25.0 °F 30.9 °F 89% 30.04 in 3.0 mi North 12.7 mph - N/A   Overcast
11:53 PM 34.0 °F 24.2 °F 30.0 °F 85% 30.04 in 4.0 mi North 15.0 mph - N/A   Overcast